Weather History for LGKL - December, 2012

Change the Weather History Date:

Thursday, December 27, 2012

  Actual Average Record
Temperature  
Mean Temperature 54 °F -  
Max Temperature 68 °F 59 °F 68 °F (2012)
Min Temperature 41 °F 42 °F 35 °F (1998)
Degree Days  
Heating Degree Days 10    
Growing Degree Days 4 (Base 50)    
Moisture  
Dew Point 47 °F    
Average Humidity 80    
Maximum Humidity 100    
Minimum Humidity 52    
Precipitation  
Precipitation 0.00 in 0.15 in - ()
Sea Level Pressure  
Sea Level Pressure 30.15 in    
Wind  
Wind Speed 1 mph ()    
Max Wind Speed 7 mph    
Max Gust Speed -    
Visibility 6.1 miles    
Events      
Averages and records for this station are not official NWS values.
T = Trace of Precipitation, MM = Missing Value Source: Averaged Metar Reports

Daily Weather History Graph

Daily Weather History Graph

Search for Another Location

Airport or City:

Trip Planner

Search our weather history database for the weather conditions in past years. The results will help you decide how hot, cold, wet, or windy it might be!

Date:

Astronomy

Dec. 27, 2012 Rise Set
Actual Time 7:44 AM EET 5:22 PM EET
Civil Twilight 7:15 AM EET 5:51 PM EET
Nautical Twilight 6:42 AM EET 6:23 PM EET
Astronomical Twilight 6:10 AM EET 6:55 PM EET
Moon 4:48 PM EET (12/27) 6:41 AM EET (12/27)
Length of Visible Light 10h 36m
Length of Day
9h 37m
Waxing Gibbous, 99% of the Moon is Illuminated
Dec 27
Waxing Gibbous
Dec 28
Full
Jan 5
Last Quarter
Jan 11
New
Jan 19
First Quarter

Hourly Weather History & Observations

Time (EET) Temp. Windchill Dew Point Humidity Pressure Visibility Wind Dir Wind Speed Gust Speed Precip Events Conditions
1:50 AM 41.0 °F - 41.0 °F 100% 30.18 in 6.2 mi Calm Calm - N/A   Partly Cloudy
4:50 AM 41.0 °F 36.4 °F 39.2 °F 93% 30.18 in 6.2 mi NNW 6.9 mph - N/A   Scattered Clouds
5:20 AM 42.8 °F 39.3 °F 41.0 °F 93% 30.18 in 6.2 mi NNW 5.8 mph - N/A   Scattered Clouds
5:50 AM 42.8 °F - 41.0 °F 93% 30.18 in 6.2 mi Calm Calm - N/A   Scattered Clouds
6:20 AM 42.8 °F - 41.0 °F 93% 30.18 in 6.2 mi Calm Calm - N/A   Scattered Clouds
6:50 AM 42.8 °F - 41.0 °F 93% 30.18 in 6.2 mi Calm Calm - N/A   Scattered Clouds
7:20 AM 41.0 °F - 39.2 °F 93% 30.18 in 5.0 mi Calm Calm - N/A   Scattered Clouds
7:50 AM 42.8 °F 40.1 °F 41.0 °F 93% 30.15 in 5.0 mi NNW 4.6 mph - N/A   Scattered Clouds
8:20 AM 42.8 °F 40.1 °F 41.0 °F 93% 30.18 in 5.0 mi North 4.6 mph - N/A   Scattered Clouds
8:50 AM 44.6 °F 42.2 °F 42.8 °F 93% 30.18 in 6.2 mi NNW 4.6 mph - N/A   Partly Cloudy
9:20 AM 48.2 °F - 44.6 °F 87% 30.18 in 6.2 mi NNW 5.8 mph - N/A   Partly Cloudy
9:50 AM 51.8 °F - 46.4 °F 82% 30.18 in 6.2 mi SE 4.6 mph - N/A   Scattered Clouds
10:20 AM 55.4 °F - 48.2 °F 77% 30.18 in 6.2 mi Calm Calm - N/A   Scattered Clouds
10:50 AM 60.8 °F - 50.0 °F 68% 30.18 in 5.6 mi Calm Calm - N/A   Scattered Clouds
11:20 AM 62.6 °F - 50.0 °F 63% 30.18 in 6.2 mi Calm Calm - N/A   Partly Cloudy
11:50 AM 64.4 °F - 50.0 °F 59% 30.18 in 6.2 mi Calm Calm - N/A   Partly Cloudy
12:20 PM 64.4 °F - 50.0 °F 59% 30.15 in 6.2 mi Calm Calm - N/A   Scattered Clouds
12:50 PM 68.0 °F - 50.0 °F 52% 30.15 in 6.2 mi Calm Calm - N/A   Scattered Clouds
1:20 PM 64.4 °F - 48.2 °F 56% 30.15 in 6.2 mi Calm Calm - N/A   Scattered Clouds
1:50 PM 66.2 °F - 50.0 °F 56% 30.12 in 6.2 mi Calm Calm - N/A   Scattered Clouds
2:20 PM 64.4 °F - 50.0 °F 59% 30.12 in 6.2 mi Calm Calm - N/A   Scattered Clouds
2:50 PM 62.6 °F - 51.8 °F 68% 30.12 in 6.2 mi Calm Calm - N/A   Mostly Cloudy
3:20 PM 62.6 °F - 51.8 °F 68% 30.12 in 6.2 mi Calm Calm - N/A   Scattered Clouds
3:50 PM 62.6 °F - 51.8 °F 68% 30.12 in 6.2 mi Calm Calm - N/A   Scattered Clouds
4:20 PM 62.6 °F - 53.6 °F 72% 30.12 in 6.2 mi Calm Calm - N/A   Scattered Clouds
4:50 PM 60.8 °F - 53.6 °F 77% 30.12 in 6.2 mi Calm Calm - N/A   Scattered Clouds
5:20 PM 57.2 °F - 51.8 °F 82% 30.12 in 6.2 mi Calm Calm - N/A   Scattered Clouds
5:50 PM 55.4 °F - 51.8 °F 88% 30.12 in 6.2 mi Calm Calm - N/A   Scattered Clouds
6:20 PM 55.4 °F - 51.8 °F 88% 30.12 in 6.2 mi Calm Calm - N/A   Scattered Clouds
6:50 PM 53.6 °F - 50.0 °F 88% 30.12 in 6.2 mi Calm Calm - N/A   Scattered Clouds
7:20 PM 53.6 °F - 50.0 °F 88% 30.12 in 6.2 mi Calm Calm - N/A   Scattered Clouds
7:50 PM 51.8 °F - 50.0 °F 94% 30.12 in 6.2 mi Calm Calm - N/A   Scattered Clouds
10:50 PM 48.2 °F - 46.4 °F 93% 30.12 in - Calm Calm - N/A   Clear